Location: Tom
(33.0437°N, 96.9452°W)
Time: 08:01:12
(UTC-05:00)

Envisat - Pass Details

Date: 24 January 2019
Orbit: 764 x 766 km, 98.2° (Epoch: 22 April)

Event Time Altitude Azimuth Distance (km) Brightness Sun altitude
Rises 06:41:41 0° 37° (NE) 3,236 6.5 -10.0°
Reaches altitude 10° 06:45:20 10° 65° (ENE) 2,304 6.2 -9.2°
Maximum altitude 06:47:40 13° 92° (E) 2,087 6.6 -8.8°
Drops below altitude 10° 06:50:01 10° 120° (ESE) 2,298 7.0 -8.3°
Sets 06:53:37 0° 147° (SSE) 3,219 7.1 -7.6°
